K0WOI Weather Reports


Display with metric or nautical units.
time (UTC)temp
F
wind
direction
speed
MPH
gust
MPH
rain 1hr
in
rain 24hr
in
rain mn
in
humidity
%
barometer
mb
20260831001851 82 83 0.0 0.0 0.00 0.02 0.02 89 1008.8
20260831001346 82 83 0.0 0.0 0.00 0.02 0.02 89 1008.8
20260831000843 83 83 0.0 0.0 0.00 0.02 0.02 88 1008.9
20260831000340 83 83 0.0 0.0 0.00 0.02 0.02 88 1009.0
20260830235836 83 83 0.0 0.0 0.00 0.02 0.02 88 1009.1
20260830235331 83 83 0.0 0.0 0.00 0.02 0.02 88 1009.0
20260830234827 83 83 0.0 0.0 0.00 0.02 0.02 87 1008.9
20260830234323 83 83 0.0 0.0 0.00 0.02 0.02 87 1008.8
20260830233818 83 83 0.0 0.0 0.00 0.02 0.02 86 1008.8
20260830233313 83 83 0.0 0.0 0.00 0.02 0.02 86 1008.9
20260830232809 83 83 0.0 0.0 0.00 0.02 0.02 86 1008.8
20260830232306 83 83 0.0 1.0 0.00 0.02 0.02 87 1008.6
20260830231801 83 83 1.0 1.0 0.00 0.02 0.02 87 1008.5
20260830231301 83 83 1.0 1.0 0.00 0.02 0.02 86 1008.6
20260830230755 83 83 0.0 0.0 0.00 0.02 0.02 85 1008.6
20260830230251 84 83 1.0 1.0 0.00 0.02 0.02 85 1008.4
20260830225750 84 83 0.0 0.0 0.00 0.02 0.02 83 1008.4
20260830225246 85 84 0.0 0.0 0.00 0.02 0.02 82 1008.6
20260830224744 84 84 1.0 2.0 0.00 0.02 0.02 84 1008.5
20260830224240 83 83 0.0 1.0 0.00 0.02 0.02 83 1008.7
20260830223736 83 83 0.0 0.0 0.00 0.02 0.02 83 1008.7
20260830223232 83 83 1.0 1.0 0.00 0.02 0.02 83 1008.9
20260830222726 83 83 1.0 1.0 0.00 0.02 0.02 83 1008.7
20260830222222 83 84 0.0 1.0 0.00 0.02 0.02 82 1008.8
20260830221717 84 83 0.0 1.0 0.00 0.02 0.02 82 1008.7
20260830221214 84 84 0.0 1.0 0.00 0.02 0.02 81 1008.4
20260830220709 86 84 1.0 1.0 0.00 0.02 0.02 78 1008.6
20260830220208 86 84 0.0 1.0 0.00 0.02 0.02 80 1008.4
20260830215707 85 84 2.0 3.0 0.00 0.02 0.02 82 1008.4
20260830215202 84 84 1.0 1.0 0.00 0.02 0.02 81 1008.4
20260830214657 84 84 0.0 1.0 0.00 0.02 0.02 83 1008.4
20260830214157 84 84 1.0 1.0 0.00 0.02 0.02 81 1008.8
20260830213656 84 84 1.0 1.0 0.00 0.02 0.02 81 1008.7
20260830213152 84 83 0.0 0.0 0.00 0.02 0.02 80 1008.8
20260830212648 84 84 0.0 1.0 0.00 0.02 0.02 80 1008.7
20260830212142 83 83 0.0 0.0 0.00 0.02 0.02 81 1008.9
20260830211638 84 84 1.0 1.0 0.00 0.02 0.02 79 1009.0
20260830211136 84 84 2.0 2.0 0.00 0.02 0.02 79 1008.9
20260830210633 85 84 0.0 1.0 0.00 0.02 0.02 78 1009.0
20260830210132 86 84 1.0 1.0 0.00 0.02 0.02 77 1008.8
20260830205629 86 84 0.0 1.0 0.00 0.02 0.02 75 1008.6
20260830205125 85 84 1.0 1.0 0.00 0.02 0.02 79 1008.5
20260830204624 85 84 0.0 1.0 0.00 0.02 0.02 79 1008.6
20260830204123 84 83 0.0 0.0 0.00 0.02 0.02 83 1008.9
20260830203619 83 84 0.0 0.0 0.00 0.02 0.02 81 1008.9
20260830203119 83 84 0.0 1.0 0.00 0.02 0.02 82 1009.1
20260830202619 83 84 0.0 1.0 0.00 0.02 0.02 81 1009.1
20260830202114 83 84 2.0 2.0 0.00 0.02 0.02 80 1009.0
20260830201614 83 84 0.0 0.0 0.00 0.02 0.02 80 1009.1
20260830201109 83 84 0.0 0.0 0.00 0.02 0.02 81 1009.2
20260830200605 83 84 1.0 1.0 0.00 0.02 0.02 78 1009.4
20260830200103 82 85 2.0 2.0 0.00 0.02 0.02 79 1009.2
20260830195559 81 84 1.0 1.0 0.00 0.02 0.02 80 1009.3
20260830195056 80 85 1.0 2.0 0.00 0.02 0.02 80 1009.5
20260830194551 80 84 5.0 8.0 0.00 0.02 0.02 81 1009.5
20260830194045 80 84 0.0 0.0 0.00 0.02 0.02 81 1009.3
20260830193544 80 84 1.0 2.0 0.00 0.02 0.02 80 1009.3
20260830193040 81 84 1.0 1.0 0.00 0.02 0.02 77 1009.7
20260830192535 82 85 2.0 2.0 0.00 0.02 0.02 75 1009.5
20260830192030 82 85 2.0 2.0 0.00 0.02 0.02 75 1009.5
20260830191525 81 84 0.0 1.0 0.00 0.02 0.02 78 1009.4
20260830191020 82 85 1.0 1.0 0.00 0.02 0.02 77 1009.6
20260830190515 81 86 4.0 6.0 0.00 0.02 0.02 76 1009.2
20260830190010 81 84 1.0 1.0 0.00 0.02 0.02 76 1009.6
20260830185504 80 84 2.0 2.0 0.00 0.02 0.02 78 1009.7
20260830185000 80 85 3.0 3.0 0.00 0.02 0.02 79 1009.4
20260830184459 80 84 1.0 1.0 0.00 0.02 0.02 78 1009.5
20260830183953 80 84 1.0 1.0 0.00 0.02 0.02 79 1009.7
20260830183448 79 84 1.0 1.0 0.00 0.02 0.02 80 1009.5
20260830182944 79 84 1.0 1.0 0.00 0.02 0.02 79 1009.6
20260830182439 79 84 2.0 2.0 0.00 0.02 0.02 79 1009.6
20260830181935 79 84 1.0 1.0 0.00 0.02 0.02 78 1009.7
20260830181431 79 84 1.0 1.0 0.00 0.02 0.02 79 1009.8
20260830180925 79 84 1.0 1.0 0.00 0.02 0.02 78 1009.9
20260830180425 79 84 2.0 2.0 0.00 0.02 0.02 79 1009.9
20260830175924 79 86 2.0 2.0 0.00 0.02 0.02 78 1010.2
20260830175423 80 84 1.0 2.0 0.00 0.02 0.02 76 1009.9
20260830174919 80 85 1.0 2.0 0.00 0.02 0.02 76 1009.9
20260830174414 80 84 1.0 1.0 0.00 0.02 0.02 77 1010.1
20260830173910 80 85 2.0 2.0 0.00 0.02 0.02 77 1010.1
20260830173405 80 84 1.0 1.0 0.00 0.02 0.02 77 1010.1
20260830172901 80 84 1.0 1.0 0.00 0.02 0.02 77 1010.1
20260830172357 80 85 2.0 2.0 0.00 0.02 0.02 75 1010.2
20260830171852 80 100 6.0 7.0 0.00 0.02 0.02 76 1010.3
20260830171348 80 85 2.0 2.0 0.00 0.02 0.02 75 1010.3
20260830170843 79 86 2.0 2.0 0.00 0.02 0.02 76 1010.3
20260830170342 79 86 2.0 2.0 0.00 0.02 0.02 77 1010.5
20260830165840 79 84 1.0 2.0 0.00 0.02 0.02 77 1010.4
20260830165337 78 85 0.0 1.0 0.00 0.02 0.02 79 1010.6
20260830164833 77 84 0.0 0.0 0.00 0.02 0.02 80 1010.4
20260830164328 77 83 0.0 0.0 0.00 0.02 0.02 80 1010.4
20260830163825 77 83 1.0 1.0 0.00 0.02 0.02 82 1010.4
20260830163320 77 83 1.0 1.0 0.00 0.02 0.02 81 1010.7
20260830162815 76 84 2.0 2.0 0.00 0.02 0.02 82 1010.7
20260830162311 76 84 1.0 2.0 0.00 0.02 0.02 82 1010.5
20260830161806 75 83 1.0 1.0 0.00 0.02 0.02 83 1010.6
20260830161305 75 84 2.0 2.0 0.00 0.02 0.02 84 1010.3
20260830160801 75 83 1.0 1.0 0.00 0.02 0.02 85 1010.4
20260830160301 75 83 1.0 1.0 0.00 0.02 0.02 85 1010.4
20260830155751 74 83 1.0 2.0 0.00 0.02 0.02 86 1010.4
20260830155248 74 82 1.0 2.0 0.00 0.02 0.02 88 1010.4
20260830154748 74 82 0.0 1.0 0.00 0.02 0.02 89 1010.8
20260830154243 73 82 1.0 1.0 0.00 0.02 0.02 89 1010.6
20260830153740 73 82 0.0 0.0 0.00 0.02 0.02 90 1010.9
20260830153235 73 82 0.0 0.0 0.00 0.02 0.02 90 1010.6
20260830152733 73 82 0.0 0.0 0.00 0.02 0.02 90 1010.6
20260830152228 73 83 1.0 1.0 0.00 0.02 0.02 90 1010.6
20260830151723 73 82 1.0 1.0 0.00 0.02 0.02 91 1010.3
20260830151222 73 82 0.0 0.0 0.00 0.02 0.02 91 1010.3
20260830150717 73 82 0.0 1.0 0.07 0.02 0.02 91 1010.1
20260830150211 73 82 0.0 0.0 0.07 0.02 0.02 91 1010.1
20260830145706 73 82 1.0 2.0 0.00 0.01 0.01 90 1010.4
20260830145201 72 85 3.0 5.0 0.00 0.01 0.01 91 1010.1
20260830144656 72 82 1.0 2.0 0.00 0.01 0.01 92 1010.0
20260830144152 72 82 0.0 0.0 0.00 0.01 0.01 93 1010.0
20260830143648 71 82 0.0 1.0 0.00 0.01 0.01 94 1010.0
20260830143146 72 81 0.0 0.0 0.00 0.01 0.01 94 1009.8
20260830142641 72 81 0.0 1.0 0.00 0.01 0.01 93 1009.6
20260830142136 72 81 1.0 1.0 0.05 0.01 0.01 92 1009.6
20260830141631 73 80 0.0 1.0 0.05 0.01 0.01 90 1009.6
20260830141126 74 82 1.0 1.0 0.00 0.00 0.00 87 1009.8
20260830140622 74 84 0.0 0.0 0.00 0.00 0.00 85 1010.0
20260830140122 75 84 0.0 0.0 0.00 0.00 0.00 84 1009.9
20260830135621 75 87 3.0 3.0 0.00 0.00 0.00 83 1010.0
20260830135116 75 85 1.0 2.0 0.00 0.00 0.00 82 1010.2
20260830134612 76 86 2.0 2.0 0.00 0.00 0.00 81 1010.2
20260830134108 76 87 3.0 3.0 0.00 0.00 0.00 81 1010.3
20260830133603 76 87 3.0 3.0 0.00 0.00 0.00 79 1010.0
20260830133058 77 89 5.0 6.0 0.00 0.00 0.00 78 1009.7
20260830132554 77 86 2.0 3.0 0.00 0.00 0.00 78 1009.6
20260830132049 76 86 2.0 3.0 0.00 0.00 0.00 77 1009.5
20260830131548 76 91 3.0 3.0 0.00 0.00 0.00 78 1009.7
20260830131043 76 86 2.0 2.0 0.00 0.00 0.00 78 1009.8
20260830130538 75 85 1.0 2.0 0.00 0.00 0.00 79 1009.7
20260830130033 75 86 2.0 2.0 0.00 0.00 0.00 79 1009.5
20260830125528 75 87 5.0 7.0 0.00 0.00 0.00 79 1009.5
20260830125027 75 89 3.0 3.0 0.00 0.00 0.00 79 1009.7
20260830124526 75 85 0.0 0.0 0.00 0.00 0.00 79 1009.7
20260830124022 75 85 1.0 1.0 0.00 0.00 0.00 80 1009.8
20260830123519 75 85 2.0 2.0 0.00 0.00 0.00 79 1009.8
20260830123014 75 85 1.0 1.0 0.00 0.00 0.00 79 1009.8
20260830122511 75 85 1.0 1.0 0.00 0.00 0.00 79 1009.7
20260830122006 75 85 2.0 2.0 0.00 0.00 0.00 79 1009.8
20260830121502 75 85 1.0 2.0 0.00 0.00 0.00 79 1009.9
20260830121001 75 85 1.0 1.0 0.00 0.00 0.00 79 1009.5
20260830120456 75 85 1.0 2.0 0.00 0.00 0.00 79 1009.5
20260830115953 75 87 2.0 2.0 0.00 0.00 0.00 79 1009.8
20260830115449 75 96 4.0 5.0 0.00 0.00 0.00 79 1009.8
20260830114944 75 87 2.0 2.0 0.00 0.00 0.00 79 1009.7
20260830114441 75 88 2.0 3.0 0.00 0.00 0.00 79 1009.7
20260830113940 75 87 3.0 3.0 0.00 0.00 0.00 79 1009.7
20260830113436 75 87 2.0 2.0 0.00 0.00 0.00 79 1009.3
20260830112931 75 88 5.0 7.0 0.00 0.00 0.00 79 1009.5
20260830112427 75 116 3.0 6.0 0.00 0.00 0.00 79 1009.5
20260830111923 75 100 5.0 6.0 0.00 0.00 0.00 79 1009.2
20260830111418 75 90 4.0 5.0 0.00 0.00 0.00 79 1009.2
20260830110914 75 85 1.0 2.0 0.00 0.00 0.00 79 1009.1
20260830110409 75 93 2.0 3.0 0.00 0.00 0.00 78 1009.3
20260830105908 75 100 4.0 5.0 0.00 0.00 0.00 78 1009.4
20260830105405 75 87 3.0 5.0 0.00 0.00 0.00 78 1009.2
20260830104901 75 86 2.0 2.0 0.00 0.00 0.00 78 1009.0
20260830104357 75 85 1.0 2.0 0.00 0.00 0.00 78 1009.4
20260830103856 75 86 1.0 2.0 0.00 0.00 0.00 78 1009.1
20260830103353 75 85 1.0 1.0 0.00 0.00 0.00 79 1009.3
20260830102850 75 85 2.0 2.0 0.00 0.00 0.00 79 1009.4
20260830102346 75 93 2.0 3.0 0.00 0.00 0.00 79 1009.3
20260830101843 75 85 1.0 2.0 0.00 0.00 0.00 79 1009.4
20260830101337 75 123 3.0 9.0 0.00 0.00 0.00 79 1009.3
20260830100836 75 86 1.0 2.0 0.00 0.00 0.00 79 1009.1
20260830100331 75 85 2.0 3.0 0.00 0.00 0.00 79 1009.2
20260830095830 75 85 1.0 2.0 0.00 0.00 0.00 79 1009.5
20260830095326 75 85 2.0 2.0 0.00 0.00 0.00 79 1009.3
20260830094822 75 87 2.0 3.0 0.00 0.00 0.00 79 1009.2
20260830094318 75 85 2.0 3.0 0.00 0.00 0.00 78 1009.3
20260830093813 75 86 3.0 3.0 0.00 0.00 0.00 79 1009.0
20260830093309 75 87 3.0 3.0 0.00 0.00 0.00 79 1009.3
20260830092808 75 107 3.0 5.0 0.00 0.00 0.00 78 1009.2
20260830092306 75 90 3.0 3.0 0.00 0.00 0.00 79 1009.2
20260830091801 75 85 1.0 1.0 0.00 0.00 0.00 79 1009.4
20260830091301 75 90 2.0 3.0 0.00 0.00 0.00 79 1009.3
20260830090759 75 85 1.0 2.0 0.00 0.00 0.00 79 1009.2
20260830090255 75 86 2.0 3.0 0.00 0.00 0.00 79 1009.3
20260830085755 75 85 1.0 2.0 0.00 0.00 0.00 79 1009.4
20260830085250 75 85 1.0 1.0 0.00 0.00 0.00 79 1009.3
20260830084746 75 85 1.0 1.0 0.00 0.00 0.00 79 1009.3
20260830084241 75 85 0.0 1.0 0.00 0.00 0.00 79 1009.4
20260830083736 76 86 1.0 2.0 0.00 0.00 0.00 78 1009.5
20260830083232 75 89 2.0 2.0 0.00 0.00 0.00 79 1009.3
20260830082731 75 87 2.0 2.0 0.00 0.00 0.00 79 1009.3
20260830082227 75 85 0.0 1.0 0.00 0.00 0.00 79 1009.3
20260830081722 75 85 1.0 1.0 0.00 0.00 0.00 79 1009.3
20260830081222 76 86 2.0 2.0 0.00 0.00 0.00 79 1009.4
20260830080716 76 86 0.0 0.0 0.00 0.00 0.00 79 1009.2
20260830080213 76 85 1.0 1.0 0.00 0.00 0.00 79 1009.2
20260830075711 76 85 1.0 1.0 0.00 0.00 0.00 79 1009.2
20260830075208 76 85 1.0 1.0 0.00 0.00 0.00 79 1009.2
20260830074703 76 85 1.0 1.0 0.00 0.00 0.00 79 1009.3
20260830074158 76 85 1.0 1.0 0.00 0.00 0.00 79 1009.2
20260830073654 76 92 3.0 3.0 0.00 0.00 0.00 79 1009.3
20260830073150 76 85 1.0 1.0 0.00 0.00 0.00 79 1009.2
20260830072645 76 85 0.0 1.0 0.00 0.00 0.00 79 1009.3
20260830072144 76 87 3.0 5.0 0.00 0.00 0.00 79 1009.3
20260830071640 76 86 2.0 3.0 0.00 0.00 0.00 78 1009.4
20260830071138 76 86 1.0 3.0 0.00 0.00 0.00 78 1009.2
20260830070633 77 85 0.0 0.0 0.00 0.00 0.00 78 1009.1
20260830070128 77 86 3.0 3.0 0.00 0.00 0.00 78 1009.3
20260830065626 77 85 2.0 3.0 0.00 0.00 0.00 77 1009.3
20260830065125 77 85 1.0 1.0 0.00 0.00 0.00 77 1009.0
20260830064619 77 85 1.0 1.0 0.00 0.00 0.00 77 1009.3
20260830064115 77 107 3.0 7.0 0.00 0.00 0.00 77 1009.2
20260830063609 77 85 1.0 1.0 0.00 0.00 0.00 77 1009.3
20260830063109 77 86 2.0 2.0 0.00 0.00 0.00 77 1009.5
20260830062603 77 85 1.0 1.0 0.00 0.00 0.00 78 1009.4
20260830062057 77 86 1.0 2.0 0.00 0.00 0.00 78 1009.3
20260830061552 77 85 1.0 1.0 0.00 0.00 0.00 78 1009.3
20260830061049 77 85 3.0 6.0 0.00 0.00 0.00 78 1009.6
20260830060544 76 85 2.0 3.0 0.00 0.00 0.00 79 1009.6
20260830060041 76 85 0.0 1.0 0.00 0.00 0.00 79 1009.5
20260830055536 77 86 1.0 2.0 0.00 0.00 0.00 78 1009.4
20260830055032 77 85 1.0 1.0 0.00 0.00 0.00 78 1009.7
20260830054527 77 85 1.0 1.0 0.00 0.00 0.00 78 1009.4
20260830054022 77 85 2.0 2.0 0.00 0.00 0.00 78 1009.5
20260830053518 77 85 0.0 1.0 0.00 0.00 0.00 78 1009.6
20260830053017 77 85 1.0 1.0 0.00 0.00 0.00 78 1009.4
20260830052513 77 85 1.0 2.0 0.00 0.00 0.00 78 1009.7
20260830052012 77 85 1.0 1.0 0.00 0.00 0.00 78 1009.7
20260830051508 77 85 0.0 0.0 0.00 0.00 0.00 78 1009.8
20260830051003 77 85 1.0 2.0 0.00 0.00 0.00 77 1009.7
20260830050457 77 85 0.0 1.0 0.00 0.00 0.00 77 1009.8
20260830045955 77 86 1.0 2.0 0.00 0.23 0.23 77 1009.6
20260830045451 77 85 0.0 1.0 0.00 0.23 0.23 77 1009.6
20260830044950 77 85 1.0 2.0 0.00 0.23 0.23 77 1009.5
20260830044446 77 85 0.0 1.0 0.00 0.23 0.23 77 1009.4
20260830043940 77 85 1.0 1.0 0.00 0.23 0.23 77 1009.6
20260830043435 77 85 0.0 1.0 0.00 0.23 0.23 77 1009.6
20260830042933 78 85 2.0 2.0 0.00 0.23 0.23 77 1009.6
20260830042427 78 85 1.0 1.0 0.00 0.23 0.23 77 1009.7
20260830041926 78 85 0.0 1.0 0.00 0.23 0.23 77 1009.5
20260830041426 78 85 1.0 1.0 0.00 0.23 0.23 77 1009.5
20260830040921 78 85 2.0 3.0 0.00 0.23 0.23 77 1009.7
20260830040417 78 98 2.0 5.0 0.00 0.23 0.23 77 1009.6
20260830035916 78 85 1.0 1.0 0.00 0.23 0.23 77 1009.5
20260830035415 78 85 1.0 2.0 0.00 0.23 0.23 77 1009.6
20260830034911 78 85 1.0 2.0 0.00 0.23 0.23 77 1009.6
20260830034406 78 85 0.0 1.0 0.00 0.23 0.23 77 1009.4
20260830033901 78 85 2.0 2.0 0.00 0.23 0.23 78 1009.5
20260830033355 78 85 1.0 2.0 0.00 0.23 0.23 78 1009.4
20260830032850 78 86 2.0 5.0 0.00 0.23 0.23 78 1009.4
20260830032344 78 86 3.0 5.0 0.00 0.23 0.23 78 1009.6
20260830031840 79 93 4.0 5.0 0.00 0.23 0.23 78 1009.7
20260830031335 79 85 2.0 2.0 0.00 0.23 0.23 79 1009.3
20260830030830 78 85 1.0 1.0 0.00 0.23 0.23 79 1009.4
20260830030326 78 85 1.0 1.0 0.00 0.23 0.23 79 1009.5
20260830025825 79 85 1.0 1.0 0.00 0.23 0.23 79 1009.5
20260830025324 78 85 1.0 2.0 0.00 0.23 0.23 79 1009.4
20260830024819 79 85 1.0 1.0 0.00 0.23 0.23 80 1009.4
20260830024314 78 85 2.0 2.0 0.00 0.23 0.23 80 1009.4
20260830023812 78 85 1.0 1.0 0.00 0.23 0.23 80 1009.4
20260830023311 78 85 2.0 2.0 0.00 0.23 0.23 80 1009.2
20260830022810 78 85 1.0 1.0 0.00 0.23 0.23 81 1009.3
20260830022306 78 85 1.0 2.0 0.00 0.23 0.23 81 1009.4
20260830021805 78 85 2.0 2.0 0.00 0.23 0.23 81 1009.2
20260830021301 78 85 1.0 1.0 0.00 0.23 0.23 81 1009.3
20260830020800 78 85 1.0 2.0 0.00 0.23 0.23 81 1009.2
20260830020255 78 84 0.0 0.0 0.00 0.23 0.23 81 1009.2
20260830015755 78 85 1.0 1.0 0.00 0.23 0.23 81 1009.0
20260830015250 78 85 1.0 1.0 0.00 0.23 0.23 81 1009.0
20260830014745 78 85 0.0 1.0 0.00 0.23 0.23 81 1009.1
20260830014241 78 85 1.0 2.0 0.00 0.23 0.23 81 1009.0
20260830013737 78 85 0.0 0.0 0.00 0.23 0.23 81 1008.9
20260830013232 78 85 1.0 1.0 0.00 0.23 0.23 82 1008.9
20260830012727 78 85 0.0 0.0 0.00 0.23 0.23 82 1008.9
20260830012223 78 85 1.0 1.0 0.00 0.23 0.23 82 1008.9
20260830011718 78 85 0.0 1.0 0.00 0.23 0.23 82 1008.8
20260830011213 78 85 0.0 0.0 0.00 0.23 0.23 82 1008.9
20260830010708 79 85 0.0 1.0 0.00 0.23 0.23 81 1008.8
20260830010203 79 85 1.0 1.0 0.00 0.23 0.23 82 1009.1
20260830005702 79 85 1.0 1.0 0.00 0.23 0.23 81 1008.8
20260830005200 79 85 1.0 1.0 0.00 0.23 0.23 81 1008.9
20260830004655 79 85 1.0 1.0 0.00 0.23 0.23 81 1009.0
20260830004150 79 85 0.0 0.0 0.00 0.23 0.23 81 1008.9
20260830003645 79 85 0.0 1.0 0.00 0.23 0.23 80 1009.0
20260830003139 80 85 0.0 0.0 0.00 0.23 0.23 80 1008.9
20260830002637 80 85 0.0 1.0 0.00 0.23 0.23 80 1009.0